• Processing (Info)

  • MPEC 1999-M35 : COMET C/1998 T1 (LINEAR)

    The following Minor Planet Electronic Circular may be linked-to from your own Web pages, but must not otherwise be redistributed electronically.

    A form allowing access to any MPEC is at the bottom of this page.


    Read MPEC 1999-M34 Read MPEC 1999-M36


    M.P.E.C. 1999-M35                                Issued 1999 June 26, 22:39 UT
    
         The Minor Planet Electronic Circulars contain information on unusual
             minor planets and routine data on comets.  They are published
       on behalf of Commission 20 of the International Astronomical Union by the
              Minor Planet Center, Smithsonian Astrophysical Observatory,
                              Cambridge, MA 02138, U.S.A.
    
                 BMARSDEN@CFA.HARVARD.EDU or GWILLIAMS@CFA.HARVARD.EDU
              URL http://cfa-www.harvard.edu/iau/mpc.html  ISSN 1523-6714
    
                               COMET C/1998 T1 (LINEAR)
    
    Observations:
        CJ98T010  C1999 06 13.34449 22 58 21.82 -17 26 41.0                      844
        CJ98T010  C1999 06 13.34707 22 58 21.36 -17 26 50.7                      844
        CJ98T010  C1999 06 26.35692 21 22 34.17 -36 16 08.5                      701
        CJ98T010  C1999 06 26.37410 21 22 19.55 -36 18 09.3                      701
        CJ98T010  C1999 06 26.39130 21 22 04.87 -36 20 09.7                      701
    
    Observer details:
    701 Sierra Vista.  Observer J. Medkeff.  0.40-m f/5 Schmidt-Cassegrain + CCD.
    844 Los Molinos.  Observers R. Salvo, E. Minuanos.  0.35-m f/6.4 reflector +
        CCD.
    
    Orbital elements:
        C/1998 T1 (LINEAR)
    Epoch 1999 July 1.0 TT = JDT 2451360.5
    T 1999 June 25.25319 TT                                 Williams
    q   1.4676855            (2000.0)            P               Q
    z  +0.0006302      Peri.  226.35344     +0.29718423     -0.95173949
     +/-0.0000024      Node   153.35576     -0.81946177     -0.21303520
    e   0.9990751      Incl.  170.16003     -0.49006525     -0.22092520
    From 231 observations 1998 Oct. 2-1999 June 26, mean residual 0".62.
    
    Ephemeris:
        C/1998 T1 (LINEAR)
    Date    TT    R. A. (2000) Decl.     Delta      r     Elong.  Phase   m1    m2
    1999 06 21    22 18.69   -26 43.0    0.657    1.469   121.2    36.3   8.8
    1999 06 22    22 10.68   -28 19.1    0.633    1.468   124.2    34.9   8.7
    1999 06 23    22 01.70   -30 00.8    0.610    1.468   127.3    33.4   8.6
    1999 06 24    21 51.62   -31 47.8    0.588    1.468   130.5    31.8   8.5
    1999 06 25    21 40.27   -33 39.3    0.567    1.468   133.9    29.9   8.4
    1999 06 26    21 27.51   -35 34.3    0.549    1.468   137.3    28.0   8.4
    1999 06 27    21 13.15   -37 30.9    0.532    1.468   140.8    26.0   8.3
    1999 06 28    20 57.06   -39 26.9    0.518    1.468   144.2    23.9   8.2
    1999 06 29    20 39.10   -41 19.2    0.506    1.469   147.6    21.8   8.2
    1999 06 30    20 19.24   -43 04.2    0.496    1.469   150.6    19.9   8.1
    1999 07 01    19 57.53   -44 38.0    0.490    1.470   153.1    18.2   8.1
    
    1999 07 03    19 09.56   -46 56.6    0.485    1.472   155.6    16.6   8.1
    1999 07 05    18 18.77   -47 52.4    0.491    1.474   154.0    17.6   8.1
    1999 07 07    17 30.14   -47 24.1    0.509    1.477   149.1    20.7   8.2
    1999 07 09    16 47.56   -45 51.3    0.538    1.481   142.7    24.6   8.4
    1999 07 11    16 12.50   -43 41.3    0.574    1.485   136.1    28.4   8.5
    1999 07 13    15 44.51   -41 17.3    0.618    1.489   129.7    31.7   8.7
    1999 07 15    15 22.40   -38 54.3    0.667    1.494   123.8    34.4   8.9
    1999 07 17    15 04.91   -36 40.3    0.720    1.500   118.5    36.6   9.0
    1999 07 19    14 50.95   -34 38.4    0.777    1.506   113.6    38.2   9.2
    1999 07 21    14 39.72   -32 49.5    0.836    1.512   109.1    39.4   9.4
    1999 07 23    14 30.58   -31 12.9    0.897    1.519   105.0    40.2   9.6
    
    1999 08 02    14 03.67   -25 34.7    1.215    1.561    88.4    40.5  10.4
    1999 08 12    13 52.30   -22 27.3    1.537    1.614    75.4    37.4  11.0
    1999 08 22    13 47.64   -20 38.4    1.847    1.676    64.2    32.9  11.6
    1999 09 01    13 46.43   -19 33.9    2.137    1.746    54.0    27.9  12.1
    1999 09 11    13 47.20   -18 56.4    2.402    1.823    44.3    22.7  12.5
    1999 09 21    13 49.19   -18 36.6    2.638    1.905    35.0    17.6  12.9
    
    Gareth V. Williams           (C) Copyright 1999 MPC           M.P.E.C. 1999-M35
    

    Read MPEC 1999-M34 Read MPEC 1999-M36


    MPEC number:

    Enter an MPEC number in one of the following forms:

    • 1997-B01 (the full form)
    • J97B01 (the packed version of the full form)
    • B01 (the abbreviated form)